{"data":{"norad_id":62034,"intl_designator":"2024-216C","name":"STARLINK-32615","alt_names":[],"object_type":"PAYLOAD","status":"ACTIVE","operator":null,"country":"US","launch_date":"2024-11-21","launch_site_code":"AFETR","launch_vehicle":null,"mission":null,"orbit_class":"UNKNOWN","rcs_meters":null,"size_class":null,"mass_kg":null,"dimensions":null,"purposes":["comms"],"wikipedia_slug":null,"has_3d_model":false,"image_url":null,"decayed_at":null,"tle_current":{"epoch":"2026-09-21T21:50:33.719136Z","epoch_age_seconds":63695,"freshness":"FRESH","line1":"1 62034U 24216C   26264.91011249  .00007071  00000+0  26610-3 0  9999","line2":"2 62034  42.9968 228.2959 0000767 326.0691  34.0111 15.27597380102728","mean_motion":15.2759738,"eccentricity":7.67e-5,"inclination_deg":42.9968,"raan_deg":228.2959,"arg_perigee_deg":326.0691,"mean_anomaly_deg":34.0111,"bstar":0.0002661,"rev_number":10272,"period_min":94.265676208478,"perigee_km":482.47080557866,"apogee_km":483.52330354263,"semimajor_km":6861.1340545606,"source":"CELESTRAK","updated_at":"2026-09-22T09:00:49.486637Z"}}}